Location: Palomar Mountain Lodge
(33.3110°N, 116.8495°W)
Time: 15:21:07
(UTC-07:00)

Cosmos 962 Rocket - Pass Details

Date: 19 May 2017
Orbit: 950 x 1000 km, 82.9° (Epoch: 23 June)

Event Time Altitude Azimuth Distance (km) Brightness Sun altitude
Rises 22:29:00 0° 357° (N) 3,692 8.4 -27.7°
Reaches altitude 10° 22:31:34 10° 0° (N) 2,733 7.5 -28.0°
Enters shadow 22:37:38 67° 73° (ENE) 1,047 4.5 -28.7°
